When you browse on this site, cookies collect data to enhance your experience and personalize the content and advertising you see.
Visit our Privacy Policy to learn more. By continuing to use the site, you agree to this use of cookies and data.
  • In Portugal
  • List of Countries
  • For 7 days
  • Water Temperature
  • Satellite Maps
  • Weather Map
  • Weather Widgets
  • user-avatar
    Login

    Hourly Weather Aleksandrovka

    Today, 19 February, Tuesday

    Time Temperature Precipitation Wind Pressure Humidity
    00:00 -5°C° 0 mm 3 mps 754 mmHg 78%
    01:00 -5°C° 0 mm 3 mps 754 mmHg 81%
    02:00 -5°C° 0 mm 2 mps 755 mmHg 83%
    03:00 -5°C° 0 mm 2 mps 755 mmHg 84%
    04:00 -5°C° 0 mm 2 mps 755 mmHg 84%
    05:00 -5°C° 0 mm 2 mps 755 mmHg 84%
    06:00 -5°C° 0 mm 2 mps 756 mmHg 83%
    07:00 -5°C° 0 mm 2 mps 756 mmHg 81%
    08:00 -3°C° 0 mm 1 mps 756 mmHg 79%
    09:00 -2°C° 0 mm 1 mps 757 mmHg 75%
    10:00 -1°C° 0 mm 1 mps 757 mmHg 70%
    11:00 -1°C° 0 mm 0 mps 757 mmHg 66%
    12:00 0°C° 0 mm 0 mps 757 mmHg 63%
    13:00 +1°C° 0 mm 1 mps 757 mmHg 61%
    14:00 +2°C° 0 mm 1 mps 756 mmHg 59%
    15:00 +1°C° 0 mm 1 mps 756 mmHg 62%
    16:00 -1°C° 0 mm 0 mps 756 mmHg 64%
    17:00 -1°C° 0 mm 0 mps 756 mmHg 67%
    18:00 0°C° 0 mm 1 mps 756 mmHg 68%
    19:00 -3°C° 0 mm 2 mps 756 mmHg 68%
    20:00 -3°C° 0 mm 2 mps 756 mmHg 69%
    21:00 -4°C° 0 mm 3 mps 755 mmHg 69%
    22:00 -4°C° 0 mm 3 mps 755 mmHg 70%
    23:00 -4°C° 0 mm 3 mps 755 mmHg 70%

    Tomorrow, 20 February, Wednesday

    Time Temperature Precipitation Wind Pressure Humidity
    00:00 -4°C° 0 mm 4 mps 754 mmHg 72%
    01:00 -4°C° 0 mm 4 mps 754 mmHg 74%
    02:00 -4°C° 0 mm 4 mps 754 mmHg 76%
    03:00 -4°C° 0 mm 4 mps 753 mmHg 75%
    04:00 -4°C° 0 mm 4 mps 753 mmHg 73%
    05:00 -5°C° 0 mm 4 mps 752 mmHg 72%
    06:00 -5°C° 0 mm 5 mps 752 mmHg 71%
    07:00 -5°C° 0 mm 5 mps 752 mmHg 69%
    08:00 -5°C° 0 mm 5 mps 751 mmHg 68%
    09:00 -3°C° 0 mm 6 mps 751 mmHg 64%
    10:00 -2°C° 0 mm 6 mps 751 mmHg 61%
    11:00 +1°C° 0 mm 6 mps 750 mmHg 57%
    12:00 +1°C° 0 mm 6 mps 750 mmHg 60%
    13:00 +2°C° 0 mm 6 mps 749 mmHg 62%
    14:00 +3°C° 0 mm 6 mps 749 mmHg 65%
    15:00 +2°C° 0 mm 5 mps 749 mmHg 70%
    16:00 +1°C° 0 mm 5 mps 748 mmHg 75%
    17:00 +1°C° 0 mm 5 mps 748 mmHg 80%
    18:00 +1°C° 0 mm 5 mps 748 mmHg 82%
    19:00 +1°C° 0 mm 5 mps 748 mmHg 84%
    20:00 +1°C° 0 mm 6 mps 747 mmHg 86%
    21:00 +1°C° 0.1 mm 6 mps 747 mmHg 87%
    22:00 +1°C° 0.1 mm 6 mps 747 mmHg 88%
    23:00 +1°C° 0.1 mm 6 mps 747 mmHg 89%

    Day after tomorrow, 21 February, Thursday

    Time Temperature Precipitation Wind Pressure Humidity
    00:00 +1°C° 0.1 mm 5 mps 747 mmHg 91%
    01:00 0°C° 0.1 mm 5 mps 746 mmHg 94%
    02:00 0°C° 0.1 mm 4 mps 746 mmHg 96%
    03:00 0°C° 0 mm 4 mps 746 mmHg 95%
    04:00 0°C° 0 mm 4 mps 746 mmHg 95%
    05:00 -1°C° 0 mm 5 mps 745 mmHg 95%
    06:00 -1°C° 0 mm 5 mps 745 mmHg 92%
    07:00 -1°C° 0 mm 5 mps 745 mmHg 89%
    08:00 -2°C° 0 mm 6 mps 745 mmHg 87%
    09:00 -1°C° 0.1 mm 7 mps 745 mmHg 83%
    10:00 0°C° 0.1 mm 7 mps 745 mmHg 80%
    11:00 0°C° 0.1 mm 8 mps 745 mmHg 77%
    12:00 -1°C° 0.1 mm 8 mps 745 mmHg 71%
    13:00 -1°C° 0.1 mm 8 mps 745 mmHg 66%
    14:00 -2°C° 0.1 mm 8 mps 745 mmHg 61%
    15:00 -2°C° 0 mm 7 mps 745 mmHg 64%
    16:00 -3°C° 0 mm 7 mps 746 mmHg 66%
    17:00 -4°C° 0 mm 6 mps 746 mmHg 68%
    18:00 -4°C° 0 mm 6 mps 746 mmHg 69%
    19:00 -4°C° 0 mm 6 mps 746 mmHg 71%
    20:00 -4°C° 0 mm 6 mps 747 mmHg 72%
    21:00 -4°C° 0 mm 6 mps 747 mmHg 72%
    22:00 -5°C° 0 mm 6 mps 747 mmHg 71%
    23:00 -5°C° 0 mm 5 mps 747 mmHg 71%

    22 February, Friday

    Time Temperature Precipitation Wind Pressure Humidity
    00:00 -5°C° 0 mm 5 mps 747 mmHg 69%
    01:00 -5°C° 0 mm 5 mps 747 mmHg 67%
    02:00 -5°C° 0 mm 5 mps 747 mmHg 65%
    03:00 -5°C° 0 mm 5 mps 747 mmHg 65%
    04:00 -6°C° 0 mm 5 mps 747 mmHg 65%
    05:00 -6°C° 0 mm 5 mps 747 mmHg 65%
    06:00 -6°C° 0 mm 5 mps 748 mmHg 67%
    07:00 -6°C° 0 mm 5 mps 748 mmHg 68%
    08:00 -6°C° 0 mm 5 mps 748 mmHg 69%
    09:00 -6°C° 0 mm 5 mps 748 mmHg 68%
    10:00 -5°C° 0 mm 5 mps 748 mmHg 68%
    11:00 -5°C° 0 mm 5 mps 748 mmHg 67%
    12:00 -4°C° 0 mm 4 mps 748 mmHg 66%
    13:00 -4°C° 0 mm 4 mps 748 mmHg 65%
    14:00 -3°C° 0 mm 4 mps 748 mmHg 64%
    15:00 -5°C° 0.1 mm 5 mps 749 mmHg 67%
    16:00 -6°C° 0.1 mm 6 mps 749 mmHg 70%
    17:00 -6°C° 0.1 mm 6 mps 750 mmHg 72%
    18:00 -9°C° 0 mm 7 mps 750 mmHg 70%
    19:00 -11°C° 0 mm 7 mps 751 mmHg 67%
    20:00 -13°C° 0 mm 8 mps 752 mmHg 64%
    21:00 -13°C° 0 mm 8 mps 752 mmHg 62%
    22:00 -13°C° 0 mm 7 mps 753 mmHg 61%
    23:00 -13°C° 0 mm 7 mps 753 mmHg 59%

    23 February, Saturday

    Time Temperature Precipitation Wind Pressure Humidity
    00:00 -13°C° 0 mm 7 mps 753 mmHg 61%
    01:00 -12°C° 0 mm 6 mps 754 mmHg 62%
    02:00 -12°C° 0 mm 6 mps 754 mmHg 64%
    03:00 -14°C° 0 mm 6 mps 754 mmHg 65%
    04:00 -14°C° 0 mm 6 mps 754 mmHg 66%
    05:00 -14°C° 0 mm 6 mps 754 mmHg 67%
    06:00 -14°C° 0 mm 6 mps 755 mmHg 66%
    07:00 -14°C° 0 mm 6 mps 755 mmHg 66%
    08:00 -14°C° 0 mm 6 mps 755 mmHg 66%
    09:00 -14°C° 0 mm 6 mps 756 mmHg 62%
    10:00 -12°C° 0 mm 6 mps 756 mmHg 59%
    11:00 -11°C° 0 mm 6 mps 756 mmHg 56%
    12:00 -11°C° 0 mm 5 mps 756 mmHg 55%
    13:00 -11°C° 0 mm 5 mps 756 mmHg 55%
    14:00 -11°C° 0 mm 5 mps 756 mmHg 54%
    15:00 -11°C° 0 mm 5 mps 756 mmHg 56%
    16:00 -11°C° 0 mm 5 mps 756 mmHg 58%
    17:00 -12°C° 0 mm 5 mps 756 mmHg 60%
    18:00 -12°C° 0 mm 5 mps 757 mmHg 61%
    19:00 -12°C° 0 mm 5 mps 757 mmHg 63%
    20:00 -13°C° 0 mm 5 mps 757 mmHg 64%
    21:00 -13°C° 0 mm 5 mps 757 mmHg 65%
    22:00 -13°C° 0 mm 5 mps 757 mmHg 66%
    23:00 -14°C° 0 mm 4 mps 757 mmHg 68%

    24 February, Sunday

    Time Temperature Precipitation Wind Pressure Humidity
    00:00 -14°C° 0 mm 4 mps 757 mmHg 69%
    01:00 -14°C° 0 mm 4 mps 757 mmHg 71%
    02:00 -14°C° 0 mm 4 mps 757 mmHg 72%
    03:00 -15°C° 0 mm 4 mps 757 mmHg 74%
    04:00 -15°C° 0 mm 4 mps 757 mmHg 76%
    05:00 -15°C° 0 mm 4 mps 757 mmHg 78%
    06:00 -15°C° 0 mm 4 mps 758 mmHg 77%
    07:00 -15°C° 0 mm 4 mps 758 mmHg 77%
    08:00 -14°C° 0 mm 4 mps 758 mmHg 76%
    09:00 -14°C° 0 mm 4 mps 758 mmHg 72%
    10:00 -13°C° 0 mm 5 mps 758 mmHg 68%
    11:00 -12°C° 0 mm 5 mps 758 mmHg 63%
    12:00 -12°C° 0 mm 5 mps 758 mmHg 62%
    13:00 -11°C° 0 mm 5 mps 758 mmHg 61%
    14:00 -11°C° 0 mm 5 mps 758 mmHg 60%
    15:00 -11°C° 0 mm 5 mps 758 mmHg 63%
    16:00 -11°C° 0 mm 5 mps 758 mmHg 65%
    17:00 -11°C° 0 mm 5 mps 758 mmHg 67%
    18:00 -11°C° 0 mm 5 mps 758 mmHg 69%
    19:00 -11°C° 0 mm 5 mps 758 mmHg 72%
    20:00 -11°C° 0 mm 5 mps 758 mmHg 74%
    21:00 -10°C° 0 mm 4 mps 757 mmHg 76%
    22:00 -11°C° 0 mm 4 mps 757 mmHg 78%
    23:00 -11°C° 0 mm 4 mps 757 mmHg 80%
    Show more